Weather History for Rome Ciampino, Italy

Change the Weather History Date:

Monday, January 14, 2013

  Actual Average Record
Temperature  
Mean Temperature 50 °F -  
Max Temperature 55 °F 54 °F 57 °F (2007)
Min Temperature 44 °F 37 °F 28 °F (2006)
Degree Days  
Heating Degree Days 16    
Moisture  
Dew Point 48 °F    
Average Humidity 91    
Maximum Humidity 100    
Minimum Humidity 76    
Precipitation  
Precipitation 0.00 in 0.13 in - ()
Sea Level Pressure  
Sea Level Pressure 29.77 in    
Wind  
Wind Speed 11 mph ()    
Max Wind Speed 21 mph    
Max Gust Speed 31 mph    
Visibility 5.4 miles    
Events Rain    
Averages and records for this station are not official NWS values.
T = Trace of Precipitation, MM = Missing Value Source: Averaged Metar Reports

Daily Weather History Graph

Daily Weather History Graph

Search for Another Location

Airport:

Trip Planner

Search our weather history database for the weather conditions in past years. The results will help you decide how hot, cold, wet, or windy it might be!

Date:

Astronomy

Jan. 14, 2013 Rise Set
Actual Time 7:35 AM CET 5:02 PM CET
Civil Twilight 7:04 AM CET 5:33 PM CET
Nautical Twilight 6:29 AM CET 6:08 PM CET
Astronomical Twilight 5:56 AM CET 6:41 PM CET
Moon 8:55 AM CET (1/14) 8:33 PM CET (1/14)
Length of Visible Light 10h 29m
Length of Day
9h 27m
Waxing Crescent, 9% of the Moon is Illuminated
Jan 14
Waxing Crescent
Jan 19
First Quarter
Jan 27
Full
Feb 3
Last Quarter
Feb 10
New

Hourly Weather History & Observations

Time (CET) Temp. Windchill Dew Point Humidity Pressure Visibility Wind Dir Wind Speed Gust Speed Precip Events Conditions
12:15 AM 48.2 °F - 48.2 °F 100% 29.74 in 5.0 mi SSE 13.8 mph - N/A   Mostly Cloudy
12:45 AM 50.0 °F - 50.0 °F 100% 29.74 in 5.0 mi SSE 18.4 mph - N/A   Mostly Cloudy
1:15 AM 50.0 °F - 50.0 °F 100% 29.74 in 5.0 mi SSE 18.4 mph - N/A   Scattered Clouds
1:45 AM 51.8 °F - 51.8 °F 100% 29.71 in 5.0 mi South 17.3 mph - N/A   Scattered Clouds
2:15 AM 51.8 °F - 51.8 °F 100% 29.71 in 5.0 mi South 17.3 mph - N/A   Mostly Cloudy
2:45 AM 51.8 °F - 51.8 °F 100% 29.71 in 5.0 mi SSE 16.1 mph - N/A   Mostly Cloudy
3:15 AM 51.8 °F - 50.0 °F 94% 29.71 in 5.0 mi South 19.6 mph 31.1 mph N/A Rain Light Rain
3:45 AM 51.8 °F - 50.0 °F 94% 29.71 in 4.3 mi South 20.7 mph - N/A Rain Light Rain
4:15 AM 51.8 °F - 50.0 °F 94% 29.71 in 4.3 mi South 16.1 mph - N/A Rain Light Rain
4:45 AM 50.0 °F - 48.2 °F 94% 29.71 in 6.2 mi South 15.0 mph - N/A   Scattered Clouds
5:15 AM 50.0 °F - 46.4 °F 87% 29.71 in 6.2 mi South 12.7 mph - N/A   Scattered Clouds
5:45 AM 50.0 °F - 48.2 °F 94% 29.71 in 6.2 mi South 11.5 mph - N/A   Scattered Clouds
6:15 AM 50.0 °F - 50.0 °F 100% 29.71 in 4.3 mi SSW 8.1 mph - N/A Rain Rain
6:45 AM 51.8 °F - 51.8 °F 100% 29.71 in 4.3 mi South 11.5 mph - N/A Rain Light Rain
7:15 AM 51.8 °F - 51.8 °F 100% 29.71 in 4.3 mi South 12.7 mph - N/A Rain Light Rain
7:45 AM 51.8 °F - 50.0 °F 94% 29.71 in 4.3 mi South 10.4 mph - N/A Rain Light Rain
8:15 AM 50.0 °F - 48.2 °F 94% 29.74 in 4.3 mi South 10.4 mph - N/A Rain Light Rain
8:45 AM 51.8 °F - 48.2 °F 88% 29.74 in 6.2 mi South 10.4 mph - N/A Rain Light Rain
9:15 AM 51.8 °F - 50.0 °F 94% 29.74 in 6.2 mi South 9.2 mph - N/A Rain Light Rain
9:45 AM 53.6 °F - 51.8 °F 94% 29.74 in 6.2 mi South 11.5 mph - N/A Rain Light Rain
10:15 AM 53.6 °F - 50.0 °F 88% 29.74 in 4.3 mi South 12.7 mph - N/A Rain Light Rain
10:45 AM 55.4 °F - 50.0 °F 82% 29.74 in 5.0 mi SSW 12.7 mph 25.3 mph N/A Rain Light Rain
11:15 AM 53.6 °F - 50.0 °F 88% 29.77 in 3.7 mi SW 9.2 mph - N/A Rain Light Rain
11:45 AM 53.6 °F - 50.0 °F 88% 29.77 in 3.7 mi SW 8.1 mph - N/A Rain Light Rain
12:15 PM 53.6 °F - 50.0 °F 88% 29.77 in 3.7 mi SW 8.1 mph - N/A Rain Light Rain
12:45 PM 51.8 °F - 48.2 °F 88% 29.77 in 4.3 mi SSW 10.4 mph - N/A Rain Light Rain
1:15 PM 53.6 °F - 50.0 °F 88% 29.77 in 3.7 mi SW 10.4 mph - N/A   Scattered Clouds
1:45 PM 53.6 °F - 48.2 °F 82% 29.74 in 5.0 mi SW 9.2 mph - N/A   Scattered Clouds
2:15 PM 53.6 °F - 48.2 °F 82% 29.77 in 5.0 mi SSW 9.2 mph - N/A   Scattered Clouds
2:45 PM 53.6 °F - 48.2 °F 82% 29.77 in 5.0 mi SW 10.4 mph - N/A   Mostly Cloudy
3:15 PM 51.8 °F - 46.4 °F 82% 29.77 in 6.2 mi SSW 9.2 mph - N/A   Scattered Clouds
3:45 PM 51.8 °F - 44.6 °F 76% 29.77 in 6.2 mi SW 10.4 mph - N/A   Mostly Cloudy
4:15 PM 50.0 °F - 44.6 °F 82% 29.80 in 6.2 mi South 8.1 mph - N/A   Mostly Cloudy
4:45 PM 50.0 °F - 44.6 °F 82% 29.80 in 6.2 mi South 5.8 mph - N/A   Mostly Cloudy
5:15 PM 50.0 °F - 46.4 °F 87% 29.80 in 6.2 mi SSW 5.8 mph - N/A   Mostly Cloudy
5:45 PM 50.0 °F - 44.6 °F 82% 29.80 in 6.2 mi SSW 5.8 mph - N/A   Mostly Cloudy
6:15 PM 50.0 °F - 48.2 °F 94% 29.83 in 6.2 mi SW 5.8 mph - N/A   Scattered Clouds
6:45 PM 50.0 °F - 48.2 °F 94% 29.83 in 6.2 mi South 5.8 mph - N/A   Partly Cloudy
7:15 PM 50.0 °F - 46.4 °F 87% 29.83 in 6.2 mi South 5.8 mph - N/A   Partly Cloudy
7:45 PM 48.2 °F - 46.4 °F 93% 29.86 in 6.2 mi South 5.8 mph - N/A   Partly Cloudy
8:15 PM 46.4 °F 45.2 °F 42.8 °F 87% 29.86 in 6.2 mi South 3.5 mph - N/A   Partly Cloudy
8:45 PM 44.6 °F 42.2 °F 41.0 °F 87% 29.86 in 6.2 mi SSE 4.6 mph - N/A   Partly Cloudy
9:15 PM 44.6 °F 40.7 °F 41.0 °F 87% 29.86 in 6.2 mi SSE 6.9 mph - N/A   Partly Cloudy
9:45 PM 44.6 °F 41.4 °F 42.8 °F 93% 29.86 in 6.2 mi SSE 5.8 mph - N/A   Partly Cloudy
10:15 PM 44.6 °F 42.2 °F 42.8 °F 93% 29.86 in 6.2 mi SSE 4.6 mph - N/A   Partly Cloudy
10:45 PM 46.4 °F 44.3 °F 42.8 °F 87% 29.86 in 6.2 mi South 4.6 mph - N/A   Scattered Clouds
11:15 PM 44.6 °F 42.2 °F 42.8 °F 93% 29.86 in 6.2 mi South 4.6 mph - N/A   Scattered Clouds
11:45 PM 44.6 °F 42.2 °F 41.0 °F 87% 29.86 in 6.2 mi South 4.6 mph - N/A   Scattered Clouds